Weather in Podgornoe

Russia / Voronezh Oblast     50°28′13″N   41°11′05″E
temp.,
°C
wind,
m/s
gust,
m/s
humid.,
%
clouds,
%
prec.,
mm/h
press.,
hPa
HPBL,
m
28 february, sun
sun2800:00−2nnw5118172 0.1 1012624
03:00−4nnw478036 0.1 1014506
06:00−5nnw46809 0.0 1015430
09:00−4nnw46788 0.0 1016486
12:00−2nw457285 0.0 1016620
15:000nw577384 0.0 1016783
18:00−1nnw377995 0.0 1017600
21:00−3n238760 0.0 1019131
1 march, mon
mon100:00−4nne238889 0.0 1020273
03:00−4n229285 0.0 1021106
06:00−5nne249046 0.0 1023244
09:00−5nne347823 0.0 1025349
12:00−3n226749 0.0 1026529
15:00−1nnw236240 0.0 1026702
18:00−2wnw227229 0.0 102647
21:00−3w257614 0.0 1026199
2 march, tue
tue200:00−3wsw488253 0.0 1025298
03:00−2wsw5118077 0.0 1023528
06:00−2wsw71479100 0.0 1020576
09:00−1wsw91593100 0.4 1017707
12:000w91597100 1.1 1014867
15:00+1w81397100 2.6 1012744
18:00+1wnw71393100 0.3 1011822
21:00−1nw5129196 0.3 1013506
3 march, wed
wed300:00−2nw5139151 0.0 1013499
03:00−2wnw6129142 0.0 1013431
06:00−2nw5119276 0.0 1013568
09:00−2nw7118586 0.1 1014943
12:00−1nw8117699 0.1 10161062
15:000nnw8126897 0.1 10171159
18:00−2nw5117596 0.0 1019744
21:00−2nw5108484 0.1 1021891
4 march, thu
thu400:00−2wnw5118389 0.0 1022488
03:00−3wnw388990 0.1 1022303
06:00−3w358981 0.0 1023139
09:00−2wsw478241 0.0 1023424
12:00+1wsw687224 0.0 1021778
15:00+3wsw7106313 0.0 1019968
18:00+1sw512760 0.0 1017308
21:00+1sw614760 0.0 1016441